Regional Weather Roundup
Issued by NWS

Home | Current Version | Previous Version | Text Only | Print | Product List | Glossary On
Versions: 1 2 3 4 5 6 7 8 9 10 11 12 13 14 15 16 17 18 19 20 21 22 23 24 25 26 27 28 29 30 31 32 33 34 35 36 37 38 39 40 41 42 43 44 45 46 47 48 49 50
000
ASUS43 KMKX 020221
RWRWI

WISCONSIN REGIONAL WEATHER ROUNDUP
NATIONAL WEATHER SERVICE MILWAUKEE/SULLIVAN WI
900 PM CDT SUN MAY 01 2016

NOTE: "FAIR" INDICATES FEW OR NO CLOUDS BELOW 12,000 FEET WITH NO
SIGNIFICANT WEATHER AND/OR OBSTRUCTIONS TO VISIBILITY.

WIZ001-002-006>008-014>016-023>028-020300-
NORTHWEST WISCONSIN

CITY           SKY/WX    TMP DP  RH WIND       PRES   REMARKS
SUPERIOR ARPT  CLEAR     37  33  85 CALM      30.18S
ASHLAND        CLEAR     37  33  85 CALM      30.17F
HAYWARD        CLEAR     45  33  63 N8        30.15R
SIREN          CLEAR     51  34  52 NE3       30.14R
CUMBERLAND     CLEAR     52  32  46 N9        30.12R
RICE LAKE      CLEAR     53  34  48 N12       30.13R
CHETEK         CLEAR     55  36  49 N6        30.11R
LADYSMITH      CLEAR     51  34  51 N10       30.13R
EAU CLAIRE     CLOUDY    58  36  43 N8        30.07R
MENOMONIE      CLOUDY    57  36  45 N9        30.08S
NEW RICHMOND   CLEAR     53  33  46 N6        30.11R
OSCEOLA        CLEAR     55  31  40 N6        30.14R
$$

WIZ003>005-009-010-017-018-020300-
NORTH CENTRAL WISCONSIN

CITY           SKY/WX    TMP DP  RH WIND       PRES   REMARKS
MANITOWISH WTR CLEAR     47  34  59 N6        30.13R
ARBOR VITAE    CLEAR     52  35  52 N7        30.12R
WOODRUFF       CLEAR     52  35  52 N7        30.12R
RHINELANDER    CLOUDY    52  30  43 CALM      30.11R
EAGLE RIVER    CLEAR     49  30  47 N7        30.11R
LAND O LAKES   CLEAR     48  31  50 N7        30.13R
PHILLIPS       CLEAR     50  35  57 N6        30.11R
TOMAHAWK       CLOUDY    52  31  45 CALM      30.10R
MEDFORD        CLOUDY    53  32  44 CALM      30.08S
MERRILL        CLOUDY   N/A N/A N/A S5        30.10S
$$

WIZ029-030-035-036-043>047-020300-
CENTRAL WISCONSIN

CITY           SKY/WX    TMP DP  RH WIND       PRES   REMARKS
WAUSAU         MOCLDY    53  31  42 SE3       30.08R
MOSINEE        MOCLDY    50  30  46 E7        30.10R
MARSHFIELD     PTCLDY    51  34  52 SE5       30.09R
STEVENS POINT  PTCLDY    45  32  59 E5        30.10R
WAUPACA        CLOUDY    51  38  61 NE3       30.10S
WAUTOMA        PTCLDY    50  38  63 NE6       30.09R
WISC RAPIDS    MOCLDY    51  32  48 CALM      30.10R
CAMP DOUGLAS   CLOUDY    51  39  63 E1        30.08R
$$

WIZ011>013-019>022-031-037>040-048>050-020300-
NORTHEAST WISCONSIN

CITY           SKY/WX    TMP DP  RH WIND       PRES   REMARKS
ANTIGO         CLOUDY    49  35  58 CALM      30.11R
SHAWANO        CLEAR     49  39  68 CALM      30.11S
OCONTO         CLEAR     41  37  88 CALM      30.11R
STURGEON BAY   CLEAR     46  34  61 NE3       30.13R
GREEN BAY      MOCLDY    50  39  66 NE6       30.10R
MANITOWOC      CLOUDY    48  36  63 MISG      30.08S
APPLETON       PTCLDY    50  37  62 NE7       30.07S
CLINTONVILLE   PTCLDY    46  36  66 E5        30.10S
OSHKOSH        CLOUDY    50  40  68 NE12      30.07S
$$

WIZ032>034-041-042-053>061-020300-
SOUTHWEST WISCONSIN

CITY           SKY/WX    TMP DP  RH WIND       PRES   REMARKS
LA CROSSE      PTCLDY    49  39  68 CALM      30.07S
SPARTA         MOCLDY    53  34  48 NE5       30.09S
VIROQUA        CLOUDY    46  45  96 SW3       30.07F
BOSCOBEL       CLOUDY    48  45  89 CALM      30.07F
PRAIRIE DU CHI CLOUDY    46  43  90 N5        30.07S
PLATTEVILLE    PTCLDY    48  46  90 N15       30.04R
$$

WIZ056-057-062-063-064-067-068-020300-
SOUTH CENTRAL WISCONSIN

CITY           SKY/WX    TMP DP  RH WIND       PRES   REMARKS
REEDSBURG      CLOUDY    51  37  58 NE6       30.06S
BARABOO/DELLS  CLOUDY    50  36  58 NE6       30.06S
LONE ROCK      CLOUDY    48  42  80 N5        30.07S
MINERAL POINT  MOCLDY    50  43  76 N13       30.05R
MADISON        CLOUDY    50  42  74 NE9       30.05R
MIDDLETON      CLOUDY    50  44  79 NE6       30.06R
WATERTOWN      CLOUDY    48  44  85 NE10      30.05R
MONROE         CLOUDY    48  43  81 N15       30.03R
JANESVILLE     CLOUDY    50  45  81 NE8       30.01R
$$

WIZ051-052-058>065-066-070>072-020300-
SOUTHEAST WISCONSIN

CITY           SKY/WX    TMP DP  RH WIND       PRES   REMARKS
MILWAUKEE      CLOUDY    44  42  93 NE17G24   30.02R
WAUKESHA       CLOUDY    45  45 100 E12       30.04R
MILWAUKEE/TIMM CLOUDY    45  41  87 NE14G20   30.05R
RACINE         LGT RAIN  44  42  93 N12       30.04R
BURLINGTON     DRIZZLE   46  45  97 N8        30.03R
KENOSHA        CLOUDY    46  44  93 N9        30.01R
FOND DU LAC    CLOUDY    49  40  71 NE10      30.07R
SHEBOYGAN      CLOUDY    47  37  68 NE15      30.06S
WEST BEND      CLOUDY    45  41  87 NE9       30.06R FOG
JUNEAU         CLOUDY    47  42  81 NE10      30.06R
$$

LSZ147-162-020300-
LAKE SUPERIOR

STATION/POSITION TIME  TEMP    WIND        PRES    WAVE
                       AIR SEA DIR/SP/G            HT/PER
                 (UTC) (F)     (DEG/KT/KT) (MB)    (FT/S)
W MID LAKE BUOY  0150   38 37  360/  6/  6 1022.3S   2/ 5
DEVILS ISLAND    0200   38      10/  4/  5 1022.7F
SAXON HARBOR     0100   39     330/  3/  3 1021.3S
$$

LMZ867-665-643>646-020300-
LAKE MICHIGAN

STATION/POSITION TIME  TEMP    WIND        PRES    WAVE
                       AIR SEA DIR/SP/G            HT/PER
                 (UTC) (F)     (DEG/KT/KT) (MB)    (FT/S)
CHAMBERS ISLAND  0140   43     350/  2/  2 1019.6S
N MID LAKE BUOY  0150   42 38  310/  6/  6 1019.5R
NORTHPORT PIER   0140   44     310/  3/  4 1019.6R
KEWAUNEE LAKESHO 0100   45                 1018.2F
SHEBOYGAN LAKESH 0200   43      20/ 15/ 16 1018.6S
PORT WASHINGTON  0140   46      20/  8/ 14 1018.3R
S MID LAKE BUOY  0150   44 40   60/ 14/ 16 1015.1F   2/ 4
KENOSHA   LAKESH 0200   45      10/ 17/ 19 1016.3R
$$

TC  - TEMPERATURE IN CELSIUS
VSB - VISIBILITY IN STATUTE MILES
WCI - WIND CHILL INDEX
HX  - HEAT INDEX




USA.gov is the U.S. government's official web portal to all federal, state and local government web resources and services.